Regional Weather Roundup
Issued by NWS

Home | Current Version | Previous Version | Graphics & Text | Print | Product List | Glossary Off
Versions: 1 2 3 4 5 6 7 8 9 10 11 12 13 14 15 16 17 18 19 20 21 22 23 24 25 26 27 28 29 30 31 32 33 34 35 36 37 38 39 40 41 42 43 44 45 46 47 48 49 50

000
ASUS43 KTOP 151159
RWRKS

WEATHER ROUNDUP FOR KANSAS
NATIONAL WEATHER SERVICE GOODLAND KS
700 AM CDT TUE APR 15 2014

NOTE:  "FAIR" INDICATES FEW OR NO CLOUDS BELOW 12,000 FEET WITH NO
SIGNIFICANT WEATHER AND/OR OBSTRUCTIONS TO VISIBILITY.

KSZ001>006-013>018-027>032-041>047-151300-
NORTHWEST KANSAS

CITY           SKY/WX    TMP DP  RH WIND       PRES   REMARKS
GOODLAND       CLEAR     28  15  58 SW17G25   30.07F WCI  16
6HR MIN TEMP:  25; 6HR MAX TEMP:  31;

HAYS           CLEAR     19  12  73 W3        30.15F
HILL CITY      CLEAR     22  18  85 W6        30.14F
6HR MIN TEMP:  19; 6HR MAX TEMP:  28;

RUSSELL        CLEAR     19  13  77 SW6       30.15F
6HR MIN TEMP:  18; 6HR MAX TEMP:  29;

$$

KSZ061>065-074>080-084>089-151300-
SOUTHWEST KANSAS

CITY           SKY/WX    TMP DP  RH WIND       PRES   REMARKS
DODGE CITY     CLEAR     29  16  58 W9        30.18F
6HR MIN TEMP:  24; 6HR MAX TEMP:  30;

ELKHART          N/A     30  16  56 SW12        N/A  WCI  20
GARDEN CITY    CLEAR     23  18  81 SW5       30.16F
6HR MIN TEMP:  23; 6HR MAX TEMP:  27;

GREAT BEND     CLEAR     21  10  63 W6        30.18S
LIBERAL        CLEAR     27  18  69 W8        30.20S
$$

KSZ066>073-081>083-090>101-151300-
SOUTHEAST KANSAS

CITY           SKY/WX    TMP DP  RH WIND       PRES   REMARKS
CHANUTE        CLEAR     25  21  85 CALM      30.21R
6HR MIN TEMP:  23; 6HR MAX TEMP:  33;

COFFEYVILLE    CLEAR     27  24  89 CALM      30.22R
6HR MIN TEMP:  26; 6HR MAX TEMP:  31;

HUTCHINSON     CLEAR     23  15  71 NW6       30.19S
6HR MIN TEMP:  23; 6HR MAX TEMP:  32;

MEDICINE LODGE   N/A     25  18  74 N6        30.21R
NEWTON         CLEAR     27  16  63 W3        30.20S
PARSONS        CLEAR     24  21  88 CALM      30.22R
6HR MIN TEMP:  23; 6HR MAX TEMP:  28;

WICHITA INTL   PTCLDY    28  18  66 NW5       30.20S
6HR MIN TEMP:  28; 6HR MAX TEMP:  34;

WICHITA JABRA  CLEAR     28  19  69 W6        30.19S
6HR MIN TEMP:  28; 6HR MAX TEMP:  36;

WINFIELD       CLEAR     26  19  74 CALM      30.22S
6HR MIN TEMP:  25; 6HR MAX TEMP:  30;

$$

KSZ007>012-019>026-033>040-048>060-102>105-151300-
NORTHEAST KANSAS

CITY           SKY/WX    TMP DP  RH WIND       PRES   REMARKS
CONCORDIA      CLEAR     23  20  88 CALM      30.18S
6HR MIN TEMP:  22; 6HR MAX TEMP:  31;

EMPORIA        CLEAR     28  23  81 W5        30.20R
6HR MIN TEMP:  28; 6HR MAX TEMP:  33;

LAWRENCE       CLEAR     23  21  92 CALM      30.21R
6HR MIN TEMP:  23; 6HR MAX TEMP:  30;

MANHATTAN      CLEAR     23  21  92 CALM      30.20S
6HR MIN TEMP:  22; 6HR MAX TEMP:  33;

OLATHE IND     CLEAR     26  22  84 CALM      30.21R
6HR MIN TEMP:  25; 6HR MAX TEMP:  32;

OLATHE EXE     CLEAR     27  25  92 CALM      30.19R FOG
6HR MIN TEMP:  26; 6HR MAX TEMP:  35;

SALINA         CLEAR     23  17  78 S3        30.19S
6HR MIN TEMP:  22; 6HR MAX TEMP:  32;

TOPEKA BILLARD CLEAR     28  24  85 SW3       30.22R
6HR MIN TEMP:  28; 6HR MAX TEMP:  36;

TOPEKA FORBES  CLEAR     25  21  85 W5        30.21R
6HR MIN TEMP:  24; 6HR MAX TEMP:  34;

$$



USA.gov is the U.S. government's official web portal to all federal, state and local government web resources and services.